Regional Weather Roundup
Issued by NWS

Home | Current Version | Previous Version | Graphics & Text | Print | Product List | Glossary Off
Versions: 1 2 3 4 5 6 7 8 9 10 11 12 13 14 15 16 17 18 19 20 21 22 23 24 25 26 27 28 29 30 31 32 33 34 35 36 37 38 39 40 41 42 43 44 45 46 47 48 49 50

000
ASUS43 KDMX 051207
RWRIA

WEATHER ROUNDUP FOR IOWA
NATIONAL WEATHER SERVICE DES MOINES IA
700 AM CDT TUE MAY 05 2015

NOTE: "FAIR" INDICATES FEW OR NO CLOUDS BELOW 12,000 FEET WITH NO
SIGNIFICANT WEATHER AND/OR OBSTRUCTIONS TO VISIBILITY.

* - THESE STATIONS ARE NOT NWS STATIONS...THUS NOT UNDER NWS
QUALITY CONTROL.  THEY ALSO DO NOT REPORT WEATHER SUCH
AS PRECIPITATION OR FOG.

IAZ001>003-012>014-020>022-031>034-043>046-051300-
   NORTHWEST IOWA

CITY           SKY/WX    TMP DP  RH WIND       PRES   REMARKS
CARROLL *      FOG       57  57 100 SE5       30.08R VSB 0
CHEROKEE *     DRIZZLE   53  48  82 NE3       30.09R
DENISON *      CLOUDY    55  55 100 NE8       30.06R FOG
LE MARS *      CLOUDY    57  41  54 NE8       30.09F
ORANGE CITY *  CLOUDY    55  37  50 E7        30.09F
SHELDON *      CLOUDY    55  37  50 NE9       30.09S
SIOUX CITY     CLOUDY    55  51  86 CALM      30.08R
6HR MIN TEMP:  54; 6HR MAX TEMP:  59; 6HR PCP:  0.04;

SPENCER        CLOUDY    54  46  74 E10       30.10S
6HR MIN TEMP:  51; 6HR MAX TEMP:  57;

STORM LAKE *   CLOUDY    52  50  93 NE13      30.09R
$$

IAZ055>058-069>071-079>083-090>094-051300-
   SOUTHWEST IOWA

CITY           SKY/WX    TMP DP  RH WIND       PRES   REMARKS
ATLANTIC *     MOCLDY    61  61 100 S5        30.09R
AUDUBON *      MOCLDY    57  55  94 CALM      30.09S FOG
CLARINDA *     CLOUDY    61  61 100 CALM      30.10R
COUNCIL BLFS * CLOUDY    59  59 100 SE5       30.07F FOG
CRESTON *      CLOUDY    59  59 100 SE6       30.11R FOG
HARLAN  *      CLOUDY    59  59 100 S5        30.11R FOG
LAMONI         FOG       60  58  92 SE5       30.12R VSB 1
6HR MIN TEMP:  59; 6HR MAX TEMP:  64; 6HR PCP: TRACE;

RED OAK *      CLOUDY    59  59 100 CALM      30.09R
SHENANDOAH *   CLOUDY    61  61 100 CALM      30.08S
$$

IAZ047>049-059>061-072>074-084-051300-
   CENTRAL IOWA

CITY           SKY/WX    TMP DP  RH WIND       PRES   REMARKS
AMES           CLOUDY    60  59  96 SE3       30.08R FOG
6HR MIN TEMP:  60; 6HR MAX TEMP:  61; 6HR PCP:  0.32;

ANKENY *       CLOUDY    61  61 100 SW5       30.09R FOG
CHARITON *     CLEAR     59  59 100 S7        30.11R
DES MOINES     FOG       62  61  96 S6        30.09R VSB 1/4
6HR MIN TEMP:  62; 6HR MAX TEMP:  64; 6HR PCP:  0.03;

GRINNELL*      CLOUDY    59  57  94 CALM      30.10S FOG
KNOXVILLE *    CLOUDY    61  59  94 S7        30.09R
MARSHALLTOWN   CLOUDY    60  58  92 S7        30.09R
6HR MIN TEMP:  60; 6HR MAX TEMP:  62; 6HR PCP:  0.15;

PELLA *        CLOUDY    59  59 100 SW6       30.11R
PERRY *        CLOUDY    61  59  94 SE8       30.08S FOG
$$

IAZ004>006-015-016-023>025-035-036-051300-
   NORTH CENTRAL IOWA

CITY           SKY/WX    TMP DP  RH WIND       PRES   REMARKS
ALGONA *       CLOUDY    57  46  67 E9        30.11S
CLARION *      LGT RAIN  55  55 100 E10       30.10S
ESTHERVILLE    CLOUDY    49  49 100 NE7       30.12S
6HR MIN TEMP:  49; 6HR MAX TEMP:  57; 6HR PCP:  0.03;

FORT DODGE *   CLOUDY    54  50  87 E8        30.10R
MASON CITY     LGT RAIN  55  49  80 E12       30.14R
6HR MIN TEMP:  54; 6HR MAX TEMP:  57; 6HR PCP: TRACE;

FOREST CITY *  CLOUDY    54  46  76 NE5       30.13R
IOWA FALLS *   CLOUDY    57  55  94 NE3       30.11R FOG
$$

IAZ007>011-017>019-026>030-037>042-050>054-066-051300-
   NORTHEAST IOWA

CITY           SKY/WX    TMP DP  RH WIND       PRES   REMARKS
CEDAR RAPIDS   CLOUDY    61  61 100 CALM      30.11R FOG
6HR MIN TEMP:  61; 6HR MAX TEMP:  63; 6HR PCP:  0.19;

CHARLES CITY * LGT RAIN  55  55 100 E16       30.14R
CLINTON *      CLOUDY    57  54  88 E10       30.17R
DECORAH *      CLOUDY    52  48  87 E10G17    30.17R
DUBUQUE        LGT RAIN  53  51  93 E9        30.15R VSB 1/2
6HR MIN TEMP:  52; 6HR MAX TEMP:  58; 6HR PCP:  0.37;

MONTICELLO *   CLOUDY    57  57 100 VRB6      30.14R
OELWEIN *      CLOUDY    54  54 100 E14       30.14R FOG
WATERLOO       CLOUDY    61  60  97 SE7       30.11R FOG
6HR MIN TEMP:  59; 6HR MAX TEMP:  62; 6HR PCP:  0.06;

$$

IAZ064-065-067-068-078-051300-
   EAST CENTRAL IOWA

CITY           SKY/WX    TMP DP  RH WIND       PRES   REMARKS
DAVENPORT      CLOUDY    57  55  93 E10       30.14R FOG
6HR MIN TEMP:  57; 6HR MAX TEMP:  63; 6HR PCP:  0.62;

IOWA CITY      CLOUDY    63  62  97 SE3       30.13R FOG
6HR MIN TEMP:  62; 6HR MAX TEMP:  64; 6HR PCP:  0.52;

MT. PLEASANT * CLOUDY    60  60 100 SW3       30.14R FOG
MUSCATINE *    PTSUNNY   63  63 100 SE5       30.13R FOG
QUAD CITIES    CLOUDY    58  56  93 E8        30.13R FOG
6HR MIN TEMP:  58; 6HR MAX TEMP:  62; 6HR PCP:  0.39;

$$

IAZ062-063-075>077-085>089-095>099-051300-
   SOUTHEAST IOWA

CITY           SKY/WX    TMP DP  RH WIND       PRES   REMARKS
BURLINGTON     PTSUNNY   61  61 100 S6        30.13R FOG
6HR MIN TEMP:  59; 6HR MAX TEMP:  64; 6HR PCP:  0.32;

FAIRFIELD *    MOCLDY    61  59  94 SW6       30.13R FOG
FORT MADISON *   N/A     61  61 100 S3        30.14R FOG
KEOKUK *       PTSUNNY   61  61 100 CALM      30.14R FOG
OSKALOOSA *      N/A     59  58  97 S7        30.10S
CENTERVILLE *  FOG       57  57 100 SE3       30.13S VSB 1/2
OTTUMWA        CLOUDY    59  59 100 S6        30.11R FOG
6HR MIN TEMP:  59; 6HR MAX TEMP:  61; 6HR PCP:  0.05;

WASHINGTON *   CLOUDY    63  63 100 S8        30.12R FOG
$$

ABBREVIATIONS USED IN REMARKS
   TC - TEMPERATURES IN CELSIUS
  WCI - WIND CHILL INDEX
   HX - HEAT INDEX
  VSB - VISIBILITY
$$



USA.gov is the U.S. government's official web portal to all federal, state and local government web resources and services.